Temp
96 97 97 96 94 91 89 88 88 86 87 87 86 88 88 89 92 91 93 94 94 93 90 90 90 88 84 83 86 84 82 83 85 81 81 82 85 86 82 82 80 80 80
95 95 96 95 93 90 88 87 87 86 87 88 87 89 89 86 91 88 93 95 95 93 91 90 88 86 83 84 84 82 82 83 83 79 77 74 79 81 84 81 80 79 79
93 93 93 93 94 89 88 87 87 86 86 88 89 89 88 89 89 89 88 92 93 94 93 91 89 88 84 85 84 82 82 80 82 82 77 71 69 73 79 79 79 79 77
96 94 93 93 94 93 92 88 88 86 87 88 87 86 84 84 87 88 88 91 94 94 94 92 90 88 85 84 84 85 82 81 78 79 81 81 77 71 69 76 76 76 77
97 95 95 94 96 96 94 91 88 87 87 86 86 87 85 86 89 89 88 90 91 93 96 92 92 90 87 84 84 82 81 82 78 76 76 76 76 77 70 67 71 75 76
98 97 96 95 95 98 97 94 88 86 86 86 86 84 85 84 86 87 88 87 89 90 92 94 90 88 88 85 85 83 83 81 78 76 76 73 71 69 68 66 68 69 73
98 97 94 93 93 95 96 95 88 86 87 87 86 85 85 87 86 86 87 86 89 89 89 91 90 89 89 85 86 83 83 80 77 74 73 74 73 73 71 68 67 66 71
99 98 98 96 94 95 95 95 88 86 87 87 86 85 85 86 86 86 86 88 89 90 90 91 92 92 89 88 85 82 82 79 77 76 74 73 74 73 72 69 67 65 67
98 98 100 99 96 96 95 95 89 87 87 87 86 85 85 84 85 85 85 88 89 93 91 92 92 92 90 87 85 81 81 81 80 76 74 72 73 74 73 72 70 67 63
100 101 100 98 99 99 99 98 95 89 88 89 88 87 86 85 85 87 88 87 89 89 91 91 91 91 89 89 84 81 80 80 78 76 74 71 71 71 73 72 71 70 66
102 103 103 102 102 102 102 100 98 92 89 89 89 87 86 86 86 85 86 87 89 89 89 89 89 89 89 88 85 81 80 80 79 77 74 73 71 71 72 72 71 68 68
97 96 103 104 103 102 101 100 97 95 91 89 88 86 86 86 86 85 86 87 86 88 89 88 88 88 88 87 87 84 79 79 78 76 74 71 75 71 70 70 69 70 70
86 92 88 92 93 100 100 98 97 97 93 89 89 87 86 85 84 85 85 86 86 86 88 87 86 87 87 87 87 82 78 79 78 77 75 73 73 70 71 70 70 68 70
83 82 84 85 76 76 93 95 98 100 95 91 89 87 87 86 86 86 86 86 86 86 86 86 87 86 87 86 86 81 78 79 78 75 75 75 70 68 68 69 67 68 68
79 80 79 79 83 77 89 94 93 95 95 89 89 88 89 89 88 87 87 87 86 87 86 86 86 87 87 89 85 81 79 76 75 75 74 69 68 66 68 69 65 65 65
74 76 78 79 79 84 87 88 91 92 93 91 90 89 88 88 87 87 87 87 86 86 86 85 86 85 90 79 73 79 80 77 74 71 68 67 67 66 66 66 66 65 62
71 72 74 75 78 79 83 82 83 86 92 91 92 90 89 87 87 87 87 86 85 86 85 85 85 84 85 68 70 74 80 77 73 71 69 69 73 68 66 65 66 66 67
71 71 71 73 77 81 81 82 84 84 86 90 90 90 89 88 87 86 85 85 86 85 85 85 85 84 86 66 67 71 78 76 72 73 71 71 67 69 70 67 66 66 64
70 71 73 73 75 79 81 80 81 84 85 87 88 89 88 86 86 85 85 85 85 85 85 86 84 83 82 63 64 71 79 74 72 73 74 71 71 65 67 71 68 64 63
73 72 74 75 74 75 79 80 80 78 80 87 88 88 88 86 86 85 84 85 85 84 87 84 84 80 82 60 61 70 81 73 72 71 73 70 70 62 64 68 69 66 65
73 73 73 72 72 74 73 74 77 74 77 82 84 85 87 87 87 86 85 85 84 84 82 84 83 82 81 69 59 61 81 74 73 71 71 70 61 58 59 59 68 66 68
72 73 70 69 70 71 71 70 72 72 75 78 82 85 85 88 88 85 85 84 83 83 83 82 82 84 83 66 58 59 59 70 73 71 72 67 57 56 57 60 60 60 62
72 72 70 69 69 70 70 68 69 70 72 75 81 83 84 83 84 83 82 81 84 82 82 80 82 81 80 73 59 55 60 62 72 74 70 58 54 54 57 59 59 57 65
71 70 70 68 67 69 68 66 67 70 72 76 76 77 79 77 83 83 80 80 80 82 79 78 78 77 77 73 68 62 65 62 67 62 62 61 61 63 65 61 61 65 68
68 71 71 68 68 69 69 68 68 70 71 71 78 79 81 81 78 80 74 75 70 69 74 72 73 72 75 75 65 63 68 71 65 65 64 64 64 65 67 67 66 68 70
68 66 68 71 71 70 69 68 68 68 69 71 73 77 81 79 80 82 77 54 55 50 48 47 53 72 62 56 53 54 53 54 55 65 61 62 65 66 67 69 69 69 70
MSLP
1005.68 1006.66 1007.36 1008.28 1009.48 1010.54 1011.30 1011.69 1012.02 1012.53 1012.93 1013.23 1013.31 1012.98 1012.83 1012.52 1012.22 1012.38 1012.42 1012.66 1012.73 1012.65 1012.66 1012.82 1012.80 1012.76 1013.02 1012.97 1012.93 1012.86 1012.45 1012.11 1011.70 1011.79 1011.84 1011.74 1011.69 1011.97 1012.16 1012.47 1012.96 1013.32 1013.61
1005.03 1006.14 1006.92 1007.79 1008.97 1010.17 1011.05 1011.62 1011.99 1012.50 1012.86 1013.00 1012.87 1012.75 1012.67 1012.75 1012.49 1012.56 1012.44 1012.52 1012.68 1012.70 1012.69 1012.93 1012.94 1013.01 1013.18 1013.08 1012.85 1012.98 1012.71 1012.26 1012.08 1012.07 1012.12 1012.07 1012.19 1012.29 1012.24 1012.53 1012.86 1013.16 1013.19
1004.17 1005.48 1006.48 1007.31 1008.25 1009.46 1010.50 1011.31 1011.83 1012.36 1012.76 1012.73 1012.71 1012.78 1012.85 1012.76 1012.59 1012.42 1012.41 1012.61 1012.50 1012.53 1012.49 1012.70 1012.99 1013.01 1013.11 1013.02 1013.02 1013.16 1013.18 1012.99 1012.49 1012.40 1012.66 1012.77 1013.10 1012.86 1012.56 1012.60 1012.74 1012.94 1013.27
1003.45 1004.79 1005.98 1006.84 1007.66 1008.66 1009.76 1010.64 1011.34 1011.91 1012.40 1012.55 1012.63 1012.73 1013.01 1012.92 1012.64 1012.46 1012.58 1012.45 1012.26 1012.48 1012.44 1012.63 1012.84 1013.09 1013.20 1013.20 1013.22 1013.38 1013.34 1013.18 1013.08 1012.80 1012.91 1012.94 1013.17 1013.25 1013.18 1012.81 1012.95 1013.05 1013.23
1002.40 1003.95 1005.23 1006.32 1007.00 1007.84 1008.79 1009.90 1010.79 1011.42 1011.85 1012.33 1012.41 1012.48 1012.85 1012.75 1012.58 1012.39 1012.62 1012.59 1012.60 1012.40 1012.22 1012.51 1012.72 1013.08 1013.19 1013.43 1013.54 1013.64 1013.62 1013.40 1013.46 1013.52 1013.47 1013.31 1013.39 1013.74 1013.94 1013.73 1013.49 1013.09 1013.22
1001.64 1003.03 1004.49 1005.66 1006.46 1007.10 1007.99 1008.98 1010.18 1010.99 1011.52 1011.93 1012.25 1012.42 1012.45 1012.60 1012.74 1012.57 1012.58 1012.52 1012.44 1012.43 1012.41 1012.47 1012.73 1012.90 1013.15 1013.42 1013.61 1013.81 1013.73 1013.83 1013.97 1014.12 1014.14 1014.00 1014.16 1014.34 1014.43 1014.50 1014.14 1013.79 1013.37
1001.02 1002.25 1003.61 1004.79 1005.78 1006.41 1007.15 1008.04 1009.27 1010.29 1010.96 1011.33 1011.84 1012.27 1012.43 1012.61 1012.72 1012.74 1012.57 1012.42 1012.08 1012.13 1012.52 1012.64 1012.76 1012.89 1013.10 1013.43 1013.68 1013.91 1014.01 1014.25 1014.50 1014.57 1014.49 1014.30 1014.28 1014.42 1014.64 1014.73 1014.62 1014.23 1013.43
1000.08 1001.51 1002.61 1003.88 1004.99 1005.75 1006.43 1007.21 1008.41 1009.47 1010.32 1010.97 1011.41 1011.84 1012.23 1012.44 1012.51 1012.54 1012.55 1012.33 1012.10 1012.16 1012.39 1012.53 1012.67 1012.80 1012.86 1013.18 1013.61 1014.08 1014.31 1014.72 1014.73 1014.68 1014.51 1014.50 1014.32 1014.38 1014.70 1014.65 1014.63 1014.54 1014.03
999.52 1000.35 1001.76 1002.80 1004.01 1004.90 1005.57 1006.41 1007.64 1008.56 1009.40 1010.24 1010.93 1011.35 1011.74 1012.08 1012.26 1012.24 1012.28 1012.33 1012.28 1012.32 1012.32 1012.51 1012.73 1012.87 1012.92 1013.23 1013.59 1014.16 1014.41 1014.64 1014.54 1014.70 1014.66 1014.96 1014.79 1014.72 1014.45 1014.49 1014.57 1014.75 1014.92
998.63 999.46 1000.62 1001.76 1002.68 1003.78 1004.69 1005.54 1006.44 1007.56 1008.42 1009.34 1010.09 1010.68 1011.22 1011.69 1011.92 1012.06 1012.01 1012.12 1012.21 1012.20 1012.36 1012.60 1012.80 1012.94 1013.07 1013.21 1013.60 1014.21 1014.59 1014.71 1014.86 1014.88 1015.12 1015.34 1015.31 1014.96 1014.82 1014.81 1015.05 1015.18 1015.40
998.31 998.55 999.64 1000.62 1001.70 1002.55 1003.50 1004.47 1005.43 1006.65 1007.70 1008.59 1009.37 1010.02 1010.62 1011.16 1011.61 1011.82 1011.87 1012.02 1012.17 1012.26 1012.33 1012.65 1012.90 1012.98 1013.09 1013.16 1013.56 1014.10 1014.41 1014.81 1014.82 1015.10 1015.31 1015.37 1015.49 1015.61 1015.27 1015.28 1015.16 1015.57 1015.71
999.43 999.01 999.07 999.43 1000.49 1001.45 1002.36 1003.36 1004.44 1005.49 1006.63 1007.67 1008.71 1009.41 1009.99 1010.55 1010.91 1011.32 1011.62 1011.87 1012.06 1012.19 1012.32 1012.59 1012.86 1012.96 1013.11 1013.13 1013.38 1013.78 1014.29 1014.66 1014.88 1015.32 1015.54 1015.79 1015.84 1015.85 1015.88 1015.73 1015.76 1015.86 1015.60
1001.75 1001.72 1002.07 1000.95 1000.30 1000.75 1001.88 1002.88 1003.74 1004.64 1005.82 1006.80 1007.96 1008.83 1009.51 1010.06 1010.44 1010.82 1011.25 1011.56 1011.83 1011.96 1012.12 1012.33 1012.67 1012.82 1013.05 1013.09 1013.15 1013.62 1014.22 1014.67 1014.99 1015.30 1015.63 1015.92 1016.08 1016.23 1016.26 1016.10 1016.14 1016.12 1015.80
1004.09 1004.32 1004.04 1003.27 1002.39 1003.30 1001.27 1002.03 1003.62 1004.24 1005.06 1006.03 1007.05 1008.11 1008.83 1009.36 1009.99 1010.47 1010.94 1011.34 1011.59 1011.80 1012.00 1012.12 1012.30 1012.55 1012.83 1012.95 1013.03 1013.68 1014.13 1014.62 1015.14 1015.52 1015.89 1016.07 1016.47 1016.81 1016.78 1016.62 1016.70 1016.59 1016.30
1005.85 1005.90 1005.83 1005.74 1005.97 1004.85 1002.83 1002.55 1003.42 1004.15 1004.52 1005.42 1006.36 1007.35 1008.11 1008.76 1009.42 1010.03 1010.50 1010.91 1011.27 1011.50 1011.70 1011.89 1012.09 1012.25 1012.36 1012.50 1012.83 1013.47 1013.97 1014.61 1015.15 1015.76 1016.24 1016.71 1017.24 1017.45 1017.14 1017.26 1017.46 1017.20 1017.13
1007.73 1007.51 1007.24 1006.86 1006.86 1005.87 1004.60 1004.62 1004.42 1004.98 1004.86 1005.13 1005.90 1006.82 1007.60 1008.24 1008.84 1009.43 1009.88 1010.29 1010.60 1010.92 1011.17 1011.50 1011.79 1012.00 1012.02 1011.89 1012.25 1012.91 1013.77 1014.45 1014.98 1015.91 1016.64 1017.15 1017.55 1017.77 1017.86 1017.90 1017.93 1017.73 1017.95
1009.39 1009.11 1008.67 1008.12 1007.54 1007.19 1006.74 1006.66 1006.52 1005.68 1005.21 1005.60 1006.12 1006.71 1007.26 1007.85 1008.37 1008.81 1009.26 1009.57 1009.89 1010.24 1010.65 1010.90 1011.30 1011.65 1011.85 1012.06 1012.38 1012.82 1013.56 1014.35 1015.03 1015.66 1016.40 1016.71 1017.32 1017.78 1018.08 1018.24 1018.28 1018.43 1018.36
1010.24 1010.25 1009.91 1009.20 1008.46 1007.66 1007.30 1007.02 1006.71 1006.27 1006.02 1005.98 1006.38 1006.77 1007.16 1007.58 1008.07 1008.44 1008.75 1008.98 1009.29 1009.74 1010.12 1010.40 1010.80 1011.23 1011.50 1011.97 1012.49 1012.86 1013.41 1014.10 1014.94 1015.38 1015.96 1016.59 1017.15 1017.36 1017.55 1018.03 1018.33 1018.79 1018.95
1011.16 1010.94 1010.62 1010.12 1009.34 1008.75 1008.31 1008.01 1007.47 1007.11 1006.96 1006.75 1006.55 1006.86 1007.18 1007.48 1007.85 1008.13 1008.39 1008.65 1008.99 1009.30 1009.61 1009.94 1010.40 1010.81 1011.18 1011.86 1012.42 1012.83 1013.37 1014.16 1014.79 1015.27 1015.73 1016.37 1016.85 1017.16 1017.35 1017.43 1018.00 1018.63 1019.07
1011.59 1011.25 1010.94 1010.66 1010.27 1009.93 1009.43 1008.80 1008.31 1008.34 1007.72 1006.89 1006.79 1006.64 1006.87 1007.21 1007.45 1007.71 1007.99 1008.26 1008.58 1008.88 1009.13 1009.68 1010.08 1010.45 1010.96 1011.96 1012.33 1012.72 1012.99 1013.96 1014.65 1015.16 1015.47 1015.90 1016.49 1017.00 1017.44 1017.54 1017.59 1018.08 1018.45
1011.84 1011.62 1011.28 1011.18 1010.94 1010.60 1010.18 1009.77 1009.21 1009.23 1008.71 1007.78 1007.39 1006.78 1006.54 1006.76 1007.00 1007.28 1007.57 1007.82 1008.18 1008.47 1008.81 1009.26 1009.73 1010.11 1010.56 1011.79 1012.19 1012.55 1012.69 1013.53 1014.30 1014.86 1015.34 1015.81 1016.36 1017.01 1017.63 1017.87 1017.73 1017.82 1017.98
1012.27 1012.07 1011.79 1011.76 1011.74 1011.29 1010.84 1010.47 1010.14 1009.98 1009.24 1008.45 1007.91 1007.33 1006.83 1006.60 1006.63 1007.07 1007.34 1007.45 1007.89 1008.36 1008.66 1009.04 1009.33 1009.43 1009.98 1010.78 1011.74 1012.04 1012.72 1012.94 1013.59 1014.29 1015.05 1015.80 1016.51 1017.12 1017.83 1018.05 1017.89 1017.90 1017.95
1012.35 1012.34 1012.24 1012.19 1012.18 1011.90 1011.60 1011.26 1010.92 1010.42 1009.71 1009.06 1008.11 1007.56 1007.19 1007.13 1007.13 1007.11 1007.38 1007.83 1008.03 1008.18 1008.59 1008.83 1008.92 1009.08 1009.66 1010.77 1011.38 1012.22 1012.82 1013.00 1013.33 1013.86 1014.66 1015.49 1016.26 1017.10 1017.86 1018.04 1017.97 1017.88 1017.87
1012.52 1012.40 1012.44 1012.43 1012.42 1012.20 1012.09 1011.84 1011.45 1010.78 1010.07 1009.23 1008.63 1008.39 1008.11 1007.89 1007.60 1007.66 1007.92 1008.14 1008.36 1008.33 1008.57 1008.86 1008.81 1009.02 1009.39 1010.40 1011.38 1012.33 1012.73 1012.89 1013.47 1013.97 1014.76 1015.42 1016.10 1016.81 1017.41 1017.90 1017.81 1017.80 1017.47
1013.20 1012.63 1012.50 1012.50 1012.46 1012.37 1012.18 1011.92 1011.61 1010.99 1010.44 1009.85 1009.12 1008.82 1008.59 1008.19 1008.29 1008.39 1008.96 1009.13 1009.73 1009.87 1009.91 1010.09 1009.95 1009.94 1009.39 1009.73 1010.58 1011.50 1011.85 1012.26 1013.20 1014.33 1015.40 1015.91 1016.19 1016.55 1016.95 1017.40 1017.51 1017.45 1017.26
1013.89 1013.42 1012.93 1012.63 1012.46 1012.54 1012.54 1012.39 1011.96 1011.55 1011.13 1010.40 1009.90 1009.17 1008.53 1008.24 1008.23 1008.46 1009.27 1010.07 1010.20 1010.35 1010.39 1010.56 1011.00 1010.09 1009.41 1009.78 1010.34 1010.90 1011.59 1012.08 1012.82 1013.87 1015.21 1015.69 1015.79 1015.92 1016.19 1016.47 1016.82 1016.87 1016.79
Wind_Speed
15 16 15 17 16 13 10 9 7 9 5 5 5 4 5 5 3 5 6 1 2 3 5 5 5 5 8 4 3 4 6 6 3 3 2 3 3 4 5 5 6 5 5
18 17 16 16 16 15 12 10 8 9 6 5 4 1 3 3 4 3 3 2 2 4 3 4 5 6 2 3 4 4 4 4 3 2 3 2 2 3 4 4 6 5 5
19 18 15 15 17 17 15 11 10 11 8 7 3 2 3 1 2 1 2 3 3 3 4 3 3 4 5 5 4 5 6 6 4 5 3 4 4 5 2 3 4 3 4
19 18 17 16 14 17 16 15 12 11 9 7 5 5 4 4 3 4 3 3 3 2 2 4 3 4 3 5 5 5 5 3 5 4 5 1 3 1 4 2 3 4 3
20 21 19 16 15 15 16 15 14 11 9 9 7 5 3 4 2 3 5 0 2 4 2 5 2 1 4 4 4 5 5 3 4 3 4 4 4 3 3 4 3 3 6
20 20 19 18 14 15 15 16 15 12 10 11 9 7 6 6 3 4 3 4 6 5 3 3 3 4 3 4 4 4 4 4 5 5 5 3 3 4 4 4 5 5 1
19 18 20 18 17 16 16 15 17 14 13 12 11 9 6 4 3 4 2 6 3 5 5 2 2 2 2 6 4 4 4 5 5 5 4 4 3 2 3 3 4 4 5
20 19 20 18 18 17 16 14 19 16 14 13 11 10 9 6 5 5 5 3 4 4 5 3 1 3 5 4 4 4 3 5 4 5 3 3 3 4 3 2 2 4 4
18 22 20 18 18 17 17 16 17 17 16 14 11 10 9 9 7 7 6 4 4 2 4 3 0 1 4 6 5 4 4 2 2 5 5 4 4 4 2 3 2 2 4
17 20 19 20 18 19 17 17 17 18 17 15 13 11 10 10 8 5 4 5 5 5 3 2 2 2 4 2 6 4 4 1 4 3 5 5 4 5 4 4 5 5 4
10 18 19 20 20 19 18 17 16 18 15 14 13 12 11 11 8 7 5 5 4 3 3 2 3 3 3 4 4 6 5 2 2 4 4 3 4 4 4 3 3 4 3
18 12 13 21 22 20 19 18 16 15 16 14 11 12 11 11 11 9 8 6 5 5 4 4 3 3 3 4 2 2 7 2 3 4 4 5 4 5 6 5 6 4 2
21 20 21 11 1 16 18 16 16 16 16 14 13 11 10 11 10 10 9 7 6 6 6 6 5 4 3 3 2 6 5 3 5 3 4 3 5 3 3 4 4 4 6
15 18 17 15 8 13 8 14 16 15 15 15 14 11 12 12 10 8 8 8 6 6 6 5 5 6 5 5 3 8 6 5 4 4 4 3 7 7 5 6 7 7 6
15 15 15 16 12 7 11 6 7 9 11 12 13 12 11 10 10 9 9 8 8 8 7 6 6 5 5 6 6 9 7 7 7 5 5 9 10 11 13 7 6 7 7
16 16 16 15 14 16 13 12 9 6 7 9 11 10 10 9 9 9 9 9 9 9 8 8 7 6 7 10 14 12 9 8 7 7 8 8 11 10 12 13 13 10 7
12 14 15 15 12 10 10 12 11 11 3 3 4 7 7 8 8 9 9 10 10 9 9 8 8 7 7 10 13 12 9 8 7 7 7 7 9 9 6 7 10 11 12
10 10 11 13 14 13 12 10 11 9 10 5 4 4 6 7 7 7 9 9 8 9 8 8 7 6 6 14 13 11 11 8 8 7 7 6 8 8 6 8 9 7 8
8 7 7 9 9 11 10 10 10 8 9 9 7 6 6 7 8 9 9 8 7 7 8 7 8 8 4 11 13 10 9 9 7 6 5 9 7 8 5 2 6 8 7
8 8 8 7 8 8 8 9 6 9 9 7 9 7 7 7 9 8 8 7 7 8 6 7 7 10 7 12 15 10 7 9 6 6 5 10 8 10 6 2 4 7 6
8 10 8 6 6 7 9 9 5 9 11 10 10 7 8 7 6 5 7 7 7 7 8 5 6 7 7 10 13 14 8 9 7 7 6 5 15 11 8 4 4 4 5
6 9 9 6 8 9 8 9 8 10 10 10 10 7 4 3 5 7 6 7 8 8 6 6 6 7 7 12 16 15 3 10 10 7 6 7 14 12 9 3 3 2 1
4 6 7 7 7 8 8 9 9 9 10 9 5 5 1 1 3 3 4 4 5 4 5 6 7 6 7 7 8 8 6 3 6 6 8 15 16 13 7 4 3 4 4
5 4 6 5 7 6 6 7 10 11 9 8 7 8 6 6 2 2 2 2 1 3 3 5 3 1 5 7 6 7 5 8 7 9 8 12 12 10 7 5 3 4 5
10 6 5 6 5 5 4 6 8 10 11 9 7 4 5 2 2 4 5 5 5 3 2 1 1 2 5 7 11 12 10 9 9 9 7 7 7 6 6 5 5 5 5
7 8 7 7 7 9 9 11 11 9 11 9 7 8 5 3 3 2 4 8 8 8 8 9 5 6 9 5 12 14 13 14 18 8 6 7 8 7 7 7 6 5 5
Wind_Direction
168 165 170 143 143 153 161 153 164 145 159 163 201 236 200 223 250 128 112 92 3 338 334 359 16 5 44 72 330 357 328 329 65 29 322 156 193 147 125 114 114 113 117
170 166 170 154 155 154 162 165 166 153 190 206 232 264 329 49 359 110 150 126 149 303 102 21 348 357 39 55 48 21 341 332 23 50 346 8 199 85 95 107 123 148 163
171 166 177 169 163 158 164 174 174 164 195 215 216 115 334 282 316 269 214 217 212 271 108 54 22 344 13 37 29 16 20 332 353 67 76 3 21 323 113 178 124 129 93
170 167 176 175 178 163 166 168 180 173 192 213 198 188 196 238 215 234 105 213 113 301 293 100 41 4 7 32 33 36 344 1 8 9 24 172 170 227 325 22 132 144 174
173 171 179 179 184 177 170 166 174 180 189 193 240 169 226 266 261 296 130 254 220 214 212 101 75 61 41 49 58 33 21 25 35 14 347 1 11 27 359 333 334 247 160
171 168 174 174 192 182 177 172 171 183 196 183 205 239 185 243 315 279 148 238 205 216 123 80 42 94 56 63 71 36 45 28 51 14 7 38 44 8 7 349 337 332 348
167 169 170 175 183 194 185 174 167 179 185 194 191 210 219 235 289 288 213 273 278 118 129 195 92 60 18 107 63 49 46 58 53 42 4 344 45 32 21 6 334 321 317
164 169 171 173 181 194 187 190 167 173 186 198 199 190 201 208 213 228 255 273 292 140 148 133 98 337 53 112 67 72 44 49 84 66 14 328 46 51 21 333 4 332 335
176 166 175 175 181 190 191 189 166 173 181 191 193 197 194 207 209 213 210 240 267 232 143 141 65 13 335 83 69 88 80 63 33 95 33 10 6 6 46 15 20 331 350
193 169 173 178 180 185 193 190 174 177 178 185 191 195 196 202 225 262 211 212 239 223 168 5 333 322 327 115 94 120 91 35 26 79 59 31 8 332 22 33 14 29 16
245 172 178 176 180 185 192 194 189 172 177 186 190 193 195 198 207 218 227 226 264 288 156 222 293 303 316 328 89 105 119 55 116 81 62 74 57 354 351 48 35 33 39
317 11 200 185 182 184 185 187 186 180 177 182 191 194 189 194 200 207 211 209 214 236 212 211 251 268 301 332 138 160 119 137 110 102 80 54 28 2 28 23 13 28 327
3 16 41 270 204 189 180 182 180 181 173 176 187 190 190 197 204 202 206 203 205 217 214 202 210 236 255 283 283 108 123 139 97 102 85 73 71 48 25 42 21 19 329
16 11 12 16 33 328 226 164 175 182 171 175 177 194 195 198 203 204 198 210 207 213 219 239 205 202 216 246 232 124 141 129 108 86 86 79 49 39 6 49 28 8 0
10 2 6 6 18 94 311 102 155 179 167 166 176 187 201 197 197 201 207 205 207 215 220 223 226 223 210 229 183 144 150 134 123 123 101 75 80 64 56 65 41 28 35
8 1 353 357 2 4 17 8 17 19 17 163 175 176 185 198 201 198 200 205 209 208 203 214 224 223 230 246 161 152 148 149 137 120 106 117 101 82 89 87 71 60 45
2 355 348 346 345 347 9 4 347 347 313 311 192 180 180 190 203 201 201 210 207 206 206 209 205 225 241 156 151 149 144 146 141 137 143 188 129 126 122 102 100 63 69
13 351 347 337 333 336 352 356 341 335 329 266 241 229 193 201 202 210 210 213 208 204 207 202 203 211 230 163 165 156 141 135 149 155 174 129 155 156 174 167 109 88 61
4 348 333 323 315 322 343 335 317 305 291 272 229 215 220 212 224 213 219 215 210 208 205 206 194 207 197 171 165 161 151 133 159 160 179 146 164 137 98 118 131 136 130
355 337 321 333 2 336 320 315 325 325 327 247 258 205 201 208 220 213 208 204 210 209 212 206 210 204 180 173 178 187 162 143 159 171 186 156 143 146 144 5 168 114 156
358 2 1 14 7 351 339 322 12 343 333 333 325 313 198 207 208 209 203 197 201 215 201 196 198 209 188 179 197 212 176 156 167 176 174 141 141 145 137 89 49 124 131
14 8 4 36 13 6 358 350 13 343 331 330 306 297 346 232 208 202 224 200 196 205 196 197 214 199 184 163 199 208 235 157 166 166 168 134 144 143 140 160 168 220 284
42 21 18 14 25 6 18 5 345 331 319 311 302 296 11 294 19 266 215 209 193 179 210 205 205 223 165 153 186 150 152 258 141 143 155 146 145 138 119 165 240 290 222
348 77 10 35 16 14 23 12 354 341 325 316 356 360 5 340 275 336 222 193 228 219 238 226 182 297 153 150 161 171 173 138 104 105 133 150 147 152 161 161 234 251 278
350 358 21 20 17 0 32 18 4 356 353 344 323 274 284 298 341 66 41 19 53 19 18 354 351 283 178 186 168 172 169 156 137 109 121 140 144 163 171 185 203 224 249
358 355 351 4 12 40 26 13 0 7 358 348 344 341 299 220 239 243 151 42 44 36 29 359 7 300 235 210 171 179 148 137 143 134 156 172 170 175 182 183 196 213 201